COSMOS 1275 DEB, 12648

Orbit data source: Space-Track

COSMOS 1275 DEB, 12648 is space debris in LEO originally from a launch on Thu, 04 Jun 1981 UTC launched from the Plesetsk Missile And Space Complex (PKMTR). Debris objects in space refer to the collection of defunct objects orbiting the Earth. Examples of debris include non-operational satellites, rocket bodies, and fragments generated from explosions, collisions, or faulty payload assembly.

Loading next visibility...
Identifier
12648, 1981-053C
Orbit
LEO
Country
Flag of CISCIS
Related business
Manufacturer
Unknown
Mission
Spacecraft
Bus & Motor
Unknown
Mass
Unknown
Launch date (UTC)
1981-06-04 (45 years ago)
Launch vehicle
Unknown
Launch site
Plesetsk Missile And Space Complex (PKMTR)
Object type
Payload
Rocket body
Debris
Shape & HBR
Unknown shape, 0.5 m
Radar Cross Section
Medium (>0.1 m² and <1 m²)

Expand to show TLE details & history
Last TLE update: 2 days ago

TLE from 2 days ago
0 COSMOS 1275 DEB
1 12648U 81053C   26171.37354272  .00000198  00000-0  17068-3 0  9991
2 12648  82.9689 204.6353 0015187 156.2435 226.0561 13.81768116258117
Epoch: 2026-06-20T08:57Z
TLE epoch observation values (Epoch: 2026-06-20T08:57:54.091Z)
Latitude
22.01208°
Longitude
164.41396°
Altitude
968.051 km
Speed
7.366 km/s
True Right ascension
13h 49m 54s
True Declination
21° 53' 47"
Sunlit
Object was in daylight at epoch
Visualization orbit readout
Latitude
Unknown
Longitude
Unknown
Altitude
Unknown
Speed
Unknown
Apparent Right ascension
Unknown
Apparent Declination
Unknown
Sunlit
N/A
Visualization observer readout
Local Sidereal Time
22:36:35
Azimuth
Unknown
Elevation
Unknown
Doppler factor
Unknown
Orbital elements
Apogee altitude
965.897 km
Perigee altitude
943.624 km
Semi-major axis
7,332.898 km
Eccentricity
0.00152
Inclination
82.9689°
RAAN
204.6353°
Arg. of periapsis
156.2435°
True anomaly
225.93096°
Mean anomaly
226.0561°
Eccentric anomaly
225.99351°
Mean motion
3.45645 °/min
Orbital period
104.15 mins
BSTAR
0.00017068
Loading maneuver chart data...
Computing Atmospheric mass density...

Documentation

Showing up to 5 results
|